Погода в Алферовской

Россия / Архангельская область     61°14′03″N   44°41′44″E
темп.,
°C
ветер,
м/с
пор.,
м/с
влажн.,
%
обл.,
%
осадки,
мм/ч
давл.,
гПа
погр.,
м
6 марта, сб
сб600:00−19зсз239875 0.0 100830
03:00−20зсз239974 0.1 101068
06:00−21зсз239884 0.0 101054
09:00−18зсз259589 0.1 1011258
12:00−14з238699 0.0 1010535
15:00−12з358899 0.1 1009690
18:00−16зюз2296100 0.1 100920
21:00−18ююз229874 0.1 100822
7 марта, вс
вс700:00−18ю239880 0.0 100542
03:00−19ююв2310077 0.0 100474
06:00−20ююв3810081 0.0 1002150
09:00−16юв489586 0.0 1001264
12:00−11юв4992100 0.0 999440
15:00−9вюв51090100 0.1 998599
18:00−10вюв41094100 0.3 997680
21:00−11вюв41094100 0.9 998565
8 марта, пн
пн800:00−12в3995100 0.3 997482
03:00−13всв4995100 0.7 997436
06:00−14св41093100 0.3 998479
09:00−14св4993100 0.4 999452
12:00−13ссв4991100 0.1 1000571
15:00−12ссв5990100 0.2 1001655
18:00−14ссв4992100 0.1 1003642
21:00−16ссв4992100 0.1 1005532
9 марта, вт
вт900:00−19с3995100 0.0 1006385
03:00−23с3997100 0.1 1008302
06:00−26ссз3997100 0.0 1010260
09:00−25с379598 0.0 1012312
12:00−21с369288 0.0 1013440
15:00−20ссз369194 0.0 1014552
18:00−24ссз2797100 0.0 1016164
21:00−27ссз259898 0.0 1019100
10 марта, ср
ср1000:00−29ссз239813 0.0 102035
03:00−31ссз239918 0.0 102226
06:00−32сз229711 0.0 102221
09:00−26зсз23916 0.0 1022172
12:00−18з258979 0.0 1021362
15:00−15зсз369189 0.1 1020526
18:00−18з2796100 0.1 1019218
21:00−19зсз389788 0.1 1020182